• In Kazakhstan
  • List of Countries
  • For 7 days
  • Water Temperature
  • Weather Map
  • News
  • Weather Widgets
  • user-avatar
    Login

    Hourly Weather Sukhumi

    Today, 21 January, Tuesday

    Time Temperature Precipitation Wind Pressure Humidity
    00:00 +5°C° 0 mm 1 mps 763 mmHg 60%
    01:00 +5°C° 0 mm 1 mps 763 mmHg 59%
    02:00 +5°C° 0 mm 1 mps 763 mmHg 57%
    03:00 +4°C° 0 mm 1 mps 763 mmHg 57%
    04:00 +4°C° 0 mm 1 mps 763 mmHg 56%
    05:00 +4°C° 0 mm 1 mps 763 mmHg 56%
    06:00 +4°C° 0 mm 1 mps 763 mmHg 56%
    07:00 +4°C° 0 mm 1 mps 763 mmHg 56%
    08:00 +5°C° 0 mm 1 mps 764 mmHg 55%
    09:00 +6°C° 0 mm 1 mps 764 mmHg 55%
    10:00 +6°C° 0 mm 2 mps 764 mmHg 61%
    11:00 +6°C° 0 mm 2 mps 764 mmHg 67%
    12:00 +7°C° 0 mm 3 mps 763 mmHg 72%
    13:00 +7°C° 0.1 mm 3 mps 763 mmHg 77%
    14:00 +5°C° 0.1 mm 3 mps 763 mmHg 81%
    15:00 +5°C° 0.1 mm 3 mps 763 mmHg 86%
    16:00 +6°C° 0 mm 2 mps 764 mmHg 87%
    17:00 +5°C° 0 mm 2 mps 764 mmHg 89%
    18:00 +5°C° 0 mm 2 mps 764 mmHg 90%
    19:00 +6°C° 0.1 mm 1 mps 764 mmHg 91%
    20:00 +5°C° 0.1 mm 1 mps 765 mmHg 93%
    21:00 +5°C° 0.1 mm 1 mps 765 mmHg 94%
    22:00 +5°C° 0.2 mm 1 mps 765 mmHg 94%
    23:00 +5°C° 0.2 mm 1 mps 764 mmHg 95%

    Tomorrow, 22 January, Wednesday

    Time Temperature Precipitation Wind Pressure Humidity
    00:00 +5°C° 0.2 mm 1 mps 764 mmHg 95%
    01:00 +4°C° 0.2 mm 1 mps 764 mmHg 94%
    02:00 +4°C° 0.2 mm 1 mps 764 mmHg 93%
    03:00 +4°C° 0.2 mm 1 mps 764 mmHg 92%
    04:00 +4°C° 0.1 mm 1 mps 764 mmHg 91%
    05:00 +4°C° 0.1 mm 1 mps 763 mmHg 90%
    06:00 +3°C° 0.1 mm 1 mps 763 mmHg 90%
    07:00 +4°C° 0.1 mm 1 mps 763 mmHg 87%
    08:00 +4°C° 0.1 mm 1 mps 763 mmHg 85%
    09:00 +4°C° 0.1 mm 1 mps 763 mmHg 83%
    10:00 +5°C° 0.1 mm 1 mps 762 mmHg 80%
    11:00 +5°C° 0.1 mm 2 mps 762 mmHg 77%
    12:00 +5°C° 0.1 mm 2 mps 761 mmHg 74%
    13:00 +5°C° 0.1 mm 2 mps 761 mmHg 76%
    14:00 +5°C° 0.1 mm 2 mps 760 mmHg 78%
    15:00 +5°C° 0.1 mm 2 mps 760 mmHg 80%
    16:00 +6°C° 0.1 mm 1 mps 760 mmHg 84%
    17:00 +5°C° 0.1 mm 1 mps 760 mmHg 87%
    18:00 +4°C° 0.1 mm 1 mps 760 mmHg 91%
    19:00 +4°C° 0.1 mm 1 mps 759 mmHg 89%
    20:00 +3°C° 0.1 mm 2 mps 759 mmHg 87%
    21:00 +3°C° 0.1 mm 2 mps 758 mmHg 86%
    22:00 +3°C° 0.2 mm 2 mps 758 mmHg 84%
    23:00 +3°C° 0.2 mm 2 mps 757 mmHg 82%

    Day after tomorrow, 23 January, Thursday

    Time Temperature Precipitation Wind Pressure Humidity
    00:00 +3°C° 0.2 mm 2 mps 756 mmHg 81%
    01:00 +2°C° 0.2 mm 3 mps 755 mmHg 82%
    02:00 +2°C° 0.2 mm 3 mps 755 mmHg 83%
    03:00 +2°C° 0.2 mm 3 mps 754 mmHg 84%
    04:00 +2°C° 0.5 mm 3 mps 753 mmHg 86%
    05:00 +1°C° 0.5 mm 3 mps 753 mmHg 89%
    06:00 +1°C° 0.5 mm 3 mps 752 mmHg 91%
    07:00 +1°C° 1.5 mm 3 mps 752 mmHg 93%
    08:00 +1°C° 1.5 mm 3 mps 752 mmHg 95%
    09:00 +2°C° 1.5 mm 3 mps 752 mmHg 96%
    10:00 +1°C° 2.2 mm 4 mps 752 mmHg 97%
    11:00 +1°C° 2.2 mm 4 mps 751 mmHg 97%
    12:00 +1°C° 2.2 mm 4 mps 751 mmHg 98%
    13:00 +1°C° 5 mm 4 mps 751 mmHg 98%
    14:00 +1°C° 5 mm 4 mps 751 mmHg 98%
    15:00 +1°C° 5 mm 4 mps 751 mmHg 98%
    16:00 +1°C° 0.7 mm 4 mps 751 mmHg 97%
    17:00 +1°C° 0.7 mm 4 mps 752 mmHg 97%
    18:00 +2°C° 0.7 mm 3 mps 753 mmHg 97%
    19:00 0°C° 0.1 mm 4 mps 753 mmHg 95%
    20:00 0°C° 0.1 mm 5 mps 754 mmHg 93%
    21:00 -1°C° 0.1 mm 5 mps 755 mmHg 91%
    22:00 -2°C° 0 mm 5 mps 755 mmHg 89%
    23:00 -3°C° 0 mm 4 mps 756 mmHg 87%

    24 January, Friday

    Time Temperature Precipitation Wind Pressure Humidity
    00:00 -4°C° 0 mm 4 mps 757 mmHg 86%
    01:00 -4°C° 0 mm 4 mps 757 mmHg 84%
    02:00 -4°C° 0 mm 3 mps 758 mmHg 83%
    03:00 -5°C° 0 mm 3 mps 758 mmHg 82%
    04:00 -5°C° 0 mm 3 mps 758 mmHg 80%
    05:00 -5°C° 0 mm 3 mps 758 mmHg 78%
    06:00 -5°C° 0 mm 3 mps 759 mmHg 76%
    07:00 -5°C° 0 mm 3 mps 759 mmHg 77%
    08:00 -3°C° 0 mm 2 mps 760 mmHg 78%
    09:00 -3°C° 0 mm 2 mps 760 mmHg 79%
    10:00 -2°C° 0 mm 2 mps 760 mmHg 81%
    11:00 -1°C° 0 mm 2 mps 761 mmHg 84%
    12:00 +1°C° 0 mm 2 mps 761 mmHg 87%
    13:00 +2°C° 0 mm 2 mps 761 mmHg 87%
    14:00 +2°C° 0 mm 2 mps 761 mmHg 88%
    15:00 +2°C° 0 mm 2 mps 761 mmHg 88%
    16:00 +1°C° 0 mm 2 mps 762 mmHg 87%
    17:00 -2°C° 0 mm 2 mps 763 mmHg 86%
    18:00 -3°C° 0 mm 2 mps 763 mmHg 85%
    19:00 -3°C° 0 mm 2 mps 764 mmHg 79%
    20:00 -4°C° 0 mm 2 mps 765 mmHg 73%
    21:00 -5°C° 0 mm 3 mps 765 mmHg 68%
    22:00 -5°C° 0 mm 3 mps 766 mmHg 70%
    23:00 -6°C° 0 mm 3 mps 766 mmHg 72%

    25 January, Saturday

    Time Temperature Precipitation Wind Pressure Humidity
    00:00 -6°C° 0 mm 3 mps 767 mmHg 74%
    01:00 -6°C° 0 mm 3 mps 767 mmHg 75%
    02:00 -6°C° 0 mm 3 mps 767 mmHg 75%
    03:00 -6°C° 0 mm 3 mps 767 mmHg 76%
    04:00 -6°C° 0 mm 3 mps 767 mmHg 75%
    05:00 -6°C° 0 mm 3 mps 767 mmHg 74%
    06:00 -5°C° 0 mm 3 mps 767 mmHg 72%
    07:00 -5°C° 0 mm 3 mps 767 mmHg 73%
    08:00 -4°C° 0 mm 3 mps 767 mmHg 74%
    09:00 -2°C° 0 mm 3 mps 767 mmHg 75%
    10:00 -1°C° 0 mm 3 mps 766 mmHg 76%
    11:00 +1°C° 0 mm 3 mps 766 mmHg 78%
    12:00 +2°C° 0 mm 3 mps 766 mmHg 79%
    13:00 +2°C° 0 mm 3 mps 765 mmHg 82%
    14:00 +3°C° 0 mm 2 mps 765 mmHg 85%
    15:00 +3°C° 0 mm 2 mps 765 mmHg 87%
    16:00 +2°C° 0 mm 2 mps 765 mmHg 87%
    17:00 +1°C° 0 mm 2 mps 765 mmHg 87%
    18:00 -1°C° 0 mm 2 mps 765 mmHg 87%
    19:00 -1°C° 0 mm 2 mps 764 mmHg 83%
    20:00 -1°C° 0 mm 2 mps 764 mmHg 80%
    21:00 -1°C° 0 mm 3 mps 764 mmHg 77%
    22:00 -1°C° 0 mm 3 mps 764 mmHg 74%
    23:00 0°C° 0 mm 3 mps 763 mmHg 71%

    26 January, Sunday

    Time Temperature Precipitation Wind Pressure Humidity
    00:00 +1°C° 0 mm 2 mps 763 mmHg 68%
    01:00 +1°C° 0 mm 2 mps 763 mmHg 67%
    02:00 +1°C° 0 mm 2 mps 762 mmHg 66%
    03:00 +2°C° 0 mm 2 mps 762 mmHg 64%
    04:00 +2°C° 0 mm 2 mps 762 mmHg 64%
    05:00 +2°C° 0 mm 2 mps 762 mmHg 63%
    06:00 +2°C° 0 mm 2 mps 762 mmHg 63%
    07:00 +3°C° 0 mm 2 mps 762 mmHg 64%
    08:00 +4°C° 0 mm 2 mps 762 mmHg 66%
    09:00 +5°C° 0 mm 2 mps 762 mmHg 67%
    10:00 +6°C° 0 mm 2 mps 761 mmHg 73%
    11:00 +8°C° 0 mm 1 mps 761 mmHg 80%
    12:00 +9°C° 0 mm 1 mps 760 mmHg 87%
    13:00 +9°C° 0 mm 1 mps 760 mmHg 87%
    14:00 +9°C° 0 mm 1 mps 760 mmHg 86%
    15:00 +9°C° 0 mm 1 mps 759 mmHg 86%
    16:00 +9°C° 0 mm 1 mps 760 mmHg 81%
    17:00 +8°C° 0 mm 1 mps 760 mmHg 75%
    18:00 +7°C° 0 mm 1 mps 760 mmHg 70%
    19:00 +7°C° 0 mm 1 mps 760 mmHg 70%
    20:00 +7°C° 0 mm 1 mps 760 mmHg 70%
    21:00 +7°C° 0 mm 1 mps 760 mmHg 70%
    22:00 +7°C° 0 mm 1 mps 760 mmHg 69%
    23:00 +6°C° 0 mm 1 mps 761 mmHg 68%
    Show more